Weather Roundup
Issued by NWS Springfield, MO

Home | Current Version | Previous Version | Text Only | Print | Product List | Glossary On
Versions: 1 2 3 4 5 6 7 8 9 10 11 12 13 14 15 16 17 18 19 20 21 22 23 24 25 26 27 28 29 30 31 32 33 34 35 36 37 38 39 40 41 42 43 44 45 46 47 48 49 50
000
NZUS99 KSGF 012207
HRRSGF

HOURLY WEATHER
NATIONAL WEATHER SERVICE SPRINGFIELD MO
500 PM CDT MON JUN 01 2015

......SGF CWA......

CITY           SKY/WX    TMP DP  RH WIND       PRES   REMARKS
SPRINGFIELD    MOSUNNY   69  56  62 NE10      30.10F
JOPLIN         MOSUNNY   73  58  59 VRB6      30.10F
WEST PLAINS    CLOUDY    66  57  72 NE6       30.12F
ROLLA          CLOUDY    60  55  83 N3        30.13S
OSAGE BEACH    CLOUDY    61  54  77 NE3       30.14F
BRANSON        PTSUNNY   68  57  68 CALM      30.11F

......SURROUNDING SGF CWA......

CITY           SKY/WX    TMP DP  RH WIND       PRES   REMARKS
CHANUTE        MOSUNNY   69  57  65 E6        30.10F
PARSONS        PTSUNNY   74  58  57 VRB3      30.10F
COFFEYVILLE    MOSUNNY   73  58  59 CALM      30.07F
EMPORIA        MOSUNNY   71  57  61 E10       30.09F
GROVE OK       SUNNY     77  57  50 CALM      30.08F
ROGERS AR      SUNNY     75  59  57 NW6       30.09F
SILOAM SPRINGS SUNNY     75  57  53 NW6       30.08F
HARRISON AR    PTSUNNY   71  60  68 E6        30.10F
NEAR YELLVILLE PTSUNNY   72  57  60 NE6       30.08S

......KANSAS AND MISSOURI......

CITY           SKY/WX    TMP DP  RH WIND       PRES   REMARKS
KANSAS CTY INT PTSUNNY   65  55  70 SE8       30.13F
DOWNTOWN KC    CLOUDY    66  54  65 E8        30.13F
COLUMBIA       CLOUDY    63  54  72 CALM      30.14F
SEDALIA        CLOUDY    63  54  72 E5        30.16S
ST JOSEPH      MOSUNNY   68  54  60 S10       30.12F
ST LOUIS       CLOUDY    64  54  68 NE9       30.13F
SPIRIT OF STL  CLOUDY    63  56  78 N5        30.13S
KIRKSVILLE     CLOUDY    63  55  75 E6        30.16F
WICHITA        MOSUNNY   76  58  53 SE9       30.05F
TOPEKA         MOSUNNY   71  56  58 E8        30.11F
OLATHE         CLOUDY    63  55  75 SE5       30.13F

......TENNESSEE......

CITY           SKY/WX    TMP DP  RH WIND       PRES   REMARKS
MEMPHIS        PTSUNNY   75  61  61 NW9       30.07F
NASHVILLE      PTSUNNY   71  64  78 NW8       30.04S

......ARKANSAS.......

CITY           SKY/WX    TMP DP  RH WIND       PRES   REMARKS
FAYETTEVILLE   PTSUNNY   77  61  57 NW8       30.07F
FT SMITH       SUNNY     83  55  38 N6        30.03F
LITTLE ROCK    PTSUNNY   77  60  55 SE5       30.07F

......OKLAHOMA.......

CITY           SKY/WX    TMP DP  RH WIND       PRES   REMARKS
TULSA          MOSUNNY   79  57  46 VRB5      30.04F
PONCA CITY     PTSUNNY   78  60  53 SE9       30.04F
MCALESTER      SUNNY     82  59  45 CALM      30.05F
OKLAHOMA CITY  PTSUNNY   79  62  56 S9        30.04F

......IOWA............

CITY           SKY/WX    TMP DP  RH WIND       PRES   REMARKS
DES MOINES     MOSUNNY   72  44  36 S6        30.13F
QUAD CITIES    PTSUNNY   71  49  45 VRB6      30.15F

......ILLINOIS........

CITY           SKY/WX    TMP DP  RH WIND       PRES   REMARKS
QUINCY         CLOUDY    65  52  62 E9        30.15F
CHICAGO        MOSUNNY   59  37  44 NE12      30.20F



USA.gov is the U.S. government's official web portal to all federal, state and local government web resources and services.